Flag for Bahrain

Past Weather in Manama, Bahrain — Yesterday and Last 2 Weeks

Currently: 82 °F. Clear. (Weather station: Bahrain International Airport, Bahrain). See more current weather

Past Weather in Manama — Graph

°F

Manama Temperature Yesterday

Maximum temperature yesterday: 86 °F (at 3:30 pm)
Minimum temperature yesterday: 75 °F (at 4:30 am)
Average temperature yesterday: 81 °F

High & Low Weather Summary for the Past Weeks

 TemperatureHumidityPressure
High93 °F (Oct 20, 2:00 pm)84% (Oct 28, 4:00 am)30.01 "Hg (Oct 28, 4:00 am)
Low75 °F (Oct 26, 5:00 am)20% (Oct 22, 2:30 pm)29.80 "Hg (Oct 14, 3:00 am)
Average84 °F60%29.89 "Hg
* Reported Oct 13 10:00 pm — Oct 28 10:00 pm, Manama. Weather by CustomWeather, © 2020

Note: Actual official high and low records may vary slightly from our data, if they occured in-between our weather recording intervals... More about our weather records

Manama Weather History for the Previous 24 Hours

Scroll right to see more
 ConditionsComfort  
Time TempWeatherWind HumidityBarometerVisibility
10:00 pm
Wed, Oct 28
82 °FClear.3 mph58%29.98 "Hg10 mi
9:30 pm82 °FClear.5 mph58%29.98 "Hg10 mi
9:00 pm82 °FClear.3 mph58%29.98 "Hg10 mi
8:00 pm84 °FClear.6 mph58%29.98 "Hg6 mi
7:00 pm84 °FClear.6 mph62%29.98 "Hg5 mi
6:00 pm84 °FClear.7 mph62%29.95 "Hg4 mi
5:00 pm84 °FClear.9 mph66%29.95 "Hg4 mi
4:00 pm86 °FSunny.13 mph59%29.92 "Hg5 mi
3:30 pm86 °FSunny.13 mph59%29.92 "Hg5 mi
3:00 pm86 °FSunny.15 mph59%29.92 "Hg5 mi
2:30 pm86 °FSunny.14 mph59%29.92 "Hg5 mi
2:00 pm86 °FSunny.14 mph59%29.92 "Hg5 mi
1:30 pm86 °FSunny.14 mph59%29.95 "Hg5 mi
1:00 pm86 °FSunny.14 mph55%29.95 "Hg5 mi
12:30 pm86 °FSunny.14 mph55%29.95 "Hg5 mi
12:00 pm86 °FSunny.14 mph52%29.95 "Hg5 mi
11:30 am84 °FSunny.13 mph58%29.98 "Hg5 mi
11:00 am84 °FSunny.12 mph62%29.98 "Hg5 mi
10:00 am84 °FSunny.10 mph62%30.01 "Hg5 mi
9:00 am82 °FSunny.13 mph66%30.01 "Hg5 mi
8:00 am81 °FSunny.12 mph70%30.01 "Hg5 mi
7:00 am81 °FSunny.3 mph74%29.98 "Hg3 mi
6:00 am79 °FSunny.3 mph79%29.98 "Hg3 mi
5:00 am79 °FClear.3 mph79%29.95 "Hg3 mi
4:00 am79 °FClear.3 mph84%29.95 "Hg3 mi
3:00 am79 °FClear.2 mph79%29.92 "Hg4 mi
2:00 am81 °FClear.2 mph66%29.95 "Hg5 mi
1:00 am81 °FClear.3 mph70%29.95 "Hg5 mi
12:00 am81 °FClear.5 mph74%29.95 "Hg4 mi
11:00 pm
Tue, Oct 27
81 °FClear.3 mph70%29.95 "Hg4 mi
Weather by CustomWeather, © 2020

See weather overview